| time (UTC) | temp C | wind direction | speed KPH | gust KPH | rain 1hr cm | rain 24hr cm | rain mn cm | humidity % | barometer mb |
| 20260508171958 | 1 | 10 | 11.3 | 0.0 | 0.00 | 0.00 | 0.00 | 99 | |
| 20260508162158 | 2 | 240 | 3.2 | 0.0 | 0.00 | 0.00 | 0.00 | 99 | |
| 20260508152000 | 2 | 310 | 3.2 | 0.0 | 0.00 | 0.00 | 0.00 | 99 | |
| 20260508132058 | 2 | 330 | 8.0 | 0.0 | 0.00 | 0.00 | 0.00 | 99 | |
| 20260508121959 | 2 | 350 | 8.0 | 0.0 | 0.00 | 0.00 | 0.00 | 99 | |
| 20260508112000 | 2 | 310 | 3.2 | 0.0 | 0.00 | 0.00 | 0.00 | 99 | |
| 20260508102200 | 2 | 310 | 3.2 | 0.0 | 0.00 | 0.00 | 0.00 | 99 | |
| 20260508091958 | 2 | 290 | 8.0 | 0.0 | 0.00 | 0.00 | 0.00 | 99 | |
| 20260508072101 | 2 | 250 | 8.0 | 0.0 | 0.00 | 0.00 | 0.00 | 99 | |
| 20260508061959 | 2 | 330 | 8.0 | 0.0 | 0.00 | 0.00 | 0.00 | 99 | |
| 20260508051958 | 2 | 320 | 8.0 | 0.0 | 0.00 | 0.00 | 0.00 | 99 | |
| 20260508042202 | 2 | 250 | 11.3 | 0.0 | 0.00 | 0.00 | 0.00 | 99 | |
| 20260508031958 | 2 | 240 | 11.3 | 0.0 | 0.00 | 0.00 | 0.00 | 99 | |
| 20260508021942 | 2 | 260 | 14.5 | 0.0 | 0.00 | 0.00 | 0.00 | 99 | |
| 20260508012058 | 2 | 220 | 3.2 | 0.0 | 0.00 | 0.00 | 0.00 | 99 | |
| 20260508001958 | 2 | 260 | 11.3 | 0.0 | 0.00 | 0.00 | 0.00 | 99 | |
| 20260507231958 | 2 | 250 | 19.3 | 0.0 | 0.00 | 0.00 | 0.00 | 99 | |
| 20260507222300 | 2 | 320 | 3.2 | 22.5 | 0.00 | 0.00 | 0.00 | 99 | |
| 20260507211959 | 2 | 250 | 8.0 | 0.0 | 0.00 | 0.00 | 0.00 | 99 | |
| 20260507202000 | 2 | 260 | 11.3 | 0.0 | 0.00 | 0.00 | 0.00 | 99 | |
| 20260507192101 | 2 | 280 | 25.7 | 0.0 | 0.00 | 0.00 | 0.00 | 99 | |
| 20260507181957 | 3 | 260 | 14.5 | 0.0 | 0.00 | 0.00 | 0.00 | 99 |